Voltar ao catálogo

ATLAS CENTAUR 2 DEB

AtivoLEO
NORAD 19638·DEBRIS·🇺🇸 United States

Lançado Nov 27, 1963 de Cape Canaveral Space Force Station

Loading…

Próximas Passagens (próximas 24 horas)

TLE

AtualizadoSource: Space-Track

Época: Sep 14, 2026, 23:37 UTC

1 19638U 63047S   26257.98443404  .00001347  00000-0  32988-2 0  9992
2 19638  31.0158 212.8722 0674737 141.2798 287.3829 12.57188525585952

Acompanhe ATLAS CENTAUR 2 DEB em tempo real com AllMySat

Download on the App Store